Location: Tucson
(32.2217°N, 110.9265°W)
Time: 14:54:34
(UTC-07:00)

A-11 Canister half - Pass Details

Date: 03 November 2021
Orbit: 1516 x 1684 km, 47.2° (Epoch: 04 December)

Event Time Altitude Azimuth Distance (km) Brightness Sun altitude
Rises 19:59:25 0° 303° (WNW) 4,920 12.4 -31.7°
Reaches altitude 10° 20:02:55 10° 310° (NW) 3,917 11.7 -32.4°
Maximum altitude 20:12:16 42° 19° (NNE) 2,195 9.6 -34.4°
Enters shadow 20:12:22 42° 20° (NNE) 2,194 9.6 -34.4°
